Location: Burgwalden
(48.2830°N, 10.7576°E)
Time: 21:55:20
(UTC+00:00)

COSMOS 2406 - Pass Details

Date: 26 September 2023
Orbit: 843 x 863 km, 71.0° (Epoch: 09 December)

Event Time Altitude Azimuth Distance (km) Brightness Sun altitude
Exits shadow 02:14:32 55° 325° (NW) 1,036 3.5 -28.2°
Drops below altitude 10° 02:19:42 10° 22° (NNE) 2,512 6.3 -27.5°
Sets 02:22:14 0° 26° (NNE) 3,451 7.3 -27.1°
